Home > Time Zones > World Clock > Weather > Japan > Naha > Past weeks

Flag for Japan Weather past 2 weeks in Naha, Okinawa, Japan

Now
88 °F

Scattered clouds.


Feels Like: 98 °F
Forecast: 83 / 88 °F
Wind: 14 mph from East

Location: Naha Airport

Current Time: Jul 29, 2014 at 9:49:17 AM

Latest Report: Jul 29, 2014 at 9:00 AM


Visibility: N/A

Pressure: 29.71 "Hg

Humidity: 66%

Dew point: 75 °F

Location of NahaLocation

Historic Weather in Naha — Graph

°F

Naha temperature yesterday

Maximum temperature yesterday: 90 °F (at 10:30 AM)
Minimum temperature yesterday: 82 °F (at 3:00 AM)
Average temperature yesterday: 86 °F

Past Weeks' High & Low Weather Summary

 TemperatureHumidityPressure
High91 °F (Jul 20, 1:30 PM)89% (Jul 16, 1:30 AM)29.95 "Hg (Jul 16, 1:30 AM)
Low79 °F (Jul 29, 3:47 AM)55% (Jul 20, 4:00 PM)29.65 "Hg (Jul 28, 5:30 PM)
Average85 °F75%29.82 "Hg
* Reported Jul 14 8:00 AM — Jul 29 8:30 AM, Naha, Weather by CustomWeather, © 2014

Note: Actual official high and low records may vary slightly from our data, if they occured in-between our weather recording intervals... More about our weather records

Advertising

Naha weather history for previous 24 hours

 ConditionsComfort  
Time TempWeatherWind HumidityBarometerVisibility
8:30 AM
Jul 29
88 °FScattered clouds.13 mph66%29.71 "HgN/A
8:00 AM86 °FScattered clouds.10 mph75%29.71 "HgN/A
7:30 AM84 °FPassing clouds.8 mph79%29.71 "HgN/A
7:00 AM84 °FPassing clouds.8 mph79%29.71 "HgN/A
6:30 AM82 °FPassing clouds.8 mph84%29.68 "HgN/A
5:30 AM82 °FPassing clouds.6 mph84%29.68 "HgN/A
5:00 AM82 °FPassing clouds.3 mph84%29.68 "HgN/A
4:30 AM81 °FScattered showers. Passing clouds.5 mph89%29.68 "HgN/A
4:00 AM81 °FSprinkles. Passing clouds.3 mph79%29.68 "HgN/A
3:47 AM79 °FLots of rain. Passing clouds.9 mph89%29.68 "Hg4 mi
3:00 AM82 °FPassing clouds.6 mph84%29.68 "HgN/A
2:30 AM82 °FPassing clouds.8 mph84%29.68 "HgN/A
2:00 AM82 °FPassing clouds.3 mph84%29.68 "HgN/A
1:30 AM82 °FPassing clouds.6 mph84%29.68 "HgN/A
1:00 AM81 °FSprinkles. Passing clouds.8 mph84%29.71 "HgN/A
12:47 AM82 °FRain showers. Partly cloudy.10 mph84%29.71 "HgN/A
12:30 AM84 °FRain showers. Partly cloudy.6 mph79%29.71 "HgN/A
12:00 AM84 °FScattered showers. Passing clouds.7 mph79%29.71 "HgN/A
11:30 PM
Jul 28
84 °FRain showers. Passing clouds.8 mph79%29.71 "HgN/A
11:00 PM84 °FPassing clouds.9 mph79%29.71 "HgN/A
10:30 PM86 °FPassing clouds.13 mph70%29.71 "HgN/A
10:00 PM84 °FPassing clouds.10 mph79%29.71 "HgN/A
9:30 PM86 °FPassing clouds.12 mph70%29.71 "HgN/A
9:00 PM86 °FPassing clouds.9 mph70%29.68 "HgN/A
8:30 PM86 °FPassing clouds.10 mph70%29.68 "HgN/A
8:00 PM86 °FPassing clouds.13 mph70%29.68 "HgN/A
7:30 PM86 °FPassing clouds.13 mph70%29.68 "HgN/A
7:00 PM86 °FPassing clouds.10 mph70%29.65 "HgN/A
6:30 PM88 °FPassing clouds.10 mph62%29.65 "HgN/A
6:00 PM88 °FPassing clouds.13 mph62%29.65 "HgN/A
5:30 PM88 °FPassing clouds.12 mph62%29.65 "HgN/A
5:00 PM88 °FScattered clouds.13 mph66%29.68 "HgN/A
4:30 PM88 °FPassing clouds.13 mph62%29.68 "HgN/A
4:00 PM90 °FPassing clouds.12 mph55%29.68 "HgN/A
3:30 PM90 °FPassing clouds.13 mph63%29.68 "HgN/A
3:00 PM90 °FScattered clouds.13 mph63%29.68 "HgN/A
2:30 PM90 °FScattered clouds.10 mph63%29.71 "HgN/A
2:00 PM90 °FScattered clouds.12 mph59%29.71 "HgN/A
1:30 PM90 °FScattered clouds.13 mph59%29.71 "HgN/A
1:00 PM90 °FScattered showers. Scattered clouds.14 mph59%29.71 "HgN/A
12:30 PM90 °FSprinkles. Scattered clouds.15 mph63%29.74 "HgN/A
12:00 PM90 °FSprinkles. Scattered clouds.13 mph63%29.74 "HgN/A
11:30 AM88 °FRain showers. Partly sunny.13 mph66%29.74 "HgN/A
11:00 AM90 °FPartly sunny.10 mph67%29.74 "HgN/A
10:30 AM90 °FSprinkles. Partly sunny.14 mph63%29.74 "HgN/A
10:00 AM88 °FRain showers. Partly sunny.12 mph66%29.74 "HgN/A
9:30 AM88 °FLots of rain. Scattered clouds.10 mph66%29.74 "HgN/A
9:00 AM88 °FScattered clouds.10 mph66%29.74 "HgN/A
Weather by CustomWeather, © 2014

See weather overviewHow to use our weather pages